Total_Precipitation_Accumulation
2.20 2.38 2.68 3.16 3.96 4.77 5.52 5.66 6.04 5.65 5.07 4.54 4.11 3.99 3.84 3.53 3.43 3.30 3.24 3.19 3.01 2.99 3.30 3.12 3.25 3.07 3.16 3.17 3.20 3.47 3.64 3.28 3.31 3.81 3.44 2.80 2.39 2.43 2.34 2.41 2.49 2.47 2.52
2.23 2.57 3.10 3.49 3.54 4.12 4.90 4.98 4.69 4.55 4.19 3.85 3.70 3.54 3.51 3.15 3.01 2.92 3.07 2.88 2.78 2.92 2.96 3.15 2.95 2.87 3.07 3.10 3.17 3.45 3.38 3.06 3.28 3.85 4.04 3.51 3.08 2.69 2.23 2.31 2.34 2.40 2.67
2.05 2.48 2.88 3.34 3.36 3.77 3.89 3.59 3.45 3.56 3.56 3.40 3.33 3.23 3.27 3.07 2.84 2.76 2.86 2.74 2.55 2.63 2.68 2.66 2.70 2.86 2.61 2.89 3.19 3.28 3.33 3.30 3.21 3.44 3.98 3.86 3.48 3.05 2.63 2.42 2.49 2.64 2.83
1.52 1.79 2.11 2.55 2.82 2.93 2.82 2.86 2.89 2.98 3.21 3.18 3.02 2.88 2.65 2.60 2.59 2.54 2.63 2.76 2.49 2.33 2.33 2.34 2.57 2.72 2.68 3.04 2.74 2.86 3.16 3.44 3.20 3.18 3.20 3.32 3.60 3.62 3.21 2.78 2.59 2.63 2.74
1.21 1.37 1.41 1.63 1.94 2.21 2.29 2.34 2.73 2.87 2.88 2.89 2.89 2.96 2.68 2.55 2.55 2.71 2.94 2.91 2.56 2.20 2.03 2.19 2.47 2.64 2.71 2.81 2.76 2.88 2.87 2.95 2.97 3.05 3.06 3.26 3.56 3.39 3.28 3.15 2.94 2.74 2.56
0.97 1.18 1.21 1.25 1.40 1.55 1.69 1.87 2.28 2.56 2.60 2.54 2.54 2.60 2.65 2.69 2.54 2.58 2.70 2.63 2.50 2.32 2.11 2.15 2.46 2.57 2.65 2.72 2.78 2.77 2.67 2.75 2.85 2.91 2.95 3.18 3.25 3.29 3.42 3.18 2.90 2.77 2.54
0.79 0.98 0.98 1.04 1.21 1.24 1.32 1.58 1.90 2.14 2.20 2.22 2.29 2.38 2.61 2.61 2.43 2.28 2.39 2.42 2.30 2.23 2.23 2.19 2.60 2.76 2.76 2.70 2.81 2.80 2.71 2.82 2.89 2.91 2.91 2.94 2.91 3.05 3.36 3.36 2.96 2.69 2.47
0.72 0.79 0.74 0.79 1.01 1.13 1.21 1.39 1.56 1.73 1.86 2.05 2.23 2.26 2.44 2.29 2.20 2.42 2.27 2.18 1.99 2.08 2.35 2.50 2.59 2.65 2.70 2.61 2.92 2.72 2.71 2.82 2.84 2.68 3.09 3.00 2.85 3.18 3.47 3.67 3.74 3.26 2.92
0.66 0.69 0.67 0.68 0.77 0.88 1.11 1.40 1.58 1.64 1.70 1.84 2.05 2.08 2.08 2.14 2.28 2.50 2.42 2.21 2.15 2.06 2.33 2.53 2.69 2.65 2.64 2.79 3.04 2.92 2.92 3.04 2.91 2.90 3.20 3.09 2.94 3.09 3.30 3.68 4.01 4.02 3.58
0.75 0.80 0.72 0.73 0.76 0.79 0.96 1.11 1.29 1.55 1.78 1.78 1.77 1.78 2.03 2.10 2.26 2.35 2.26 2.23 2.21 2.27 2.47 2.53 2.54 2.48 2.47 2.66 3.06 3.00 3.01 3.17 3.11 3.10 3.18 3.13 2.96 3.11 3.18 3.39 3.79 4.12 4.07
0.77 0.83 0.68 0.67 0.71 0.80 0.89 1.06 1.25 1.52 1.74 1.68 1.74 1.93 2.11 2.17 2.25 2.40 2.33 2.26 2.28 2.40 2.49 2.52 2.52 2.43 2.32 2.45 2.69 2.75 2.97 3.07 3.12 3.09 3.16 3.14 3.27 3.30 3.23 3.39 3.51 3.74 3.94
0.89 0.98 0.87 0.91 0.94 1.05 1.09 1.17 1.27 1.47 1.59 1.61 1.73 1.94 2.08 2.13 2.21 2.26 2.36 2.40 2.38 2.47 2.55 2.57 2.53 2.32 2.29 2.43 2.53 2.64 2.84 2.94 3.05 3.21 3.34 3.06 3.21 3.34 3.28 3.33 3.29 3.42 3.77
1.17 1.15 1.08 1.17 1.16 1.19 1.31 1.35 1.42 1.49 1.62 1.79 1.85 1.85 1.92 1.96 2.04 2.15 2.24 2.36 2.44 2.50 2.54 2.55 2.45 2.37 2.42 2.53 2.61 2.72 2.87 2.91 3.00 3.18 3.14 3.02 3.20 3.07 3.20 3.29 3.18 3.19 3.24
1.12 1.14 1.20 1.16 1.20 1.29 1.46 1.60 1.61 1.58 1.67 1.75 1.81 1.84 1.87 1.97 2.12 2.25 2.34 2.40 2.38 2.39 2.36 2.31 2.38 2.45 2.48 2.53 2.59 2.62 2.67 2.69 2.76 2.77 2.66 2.57 2.62 2.69 2.92 2.90 2.88 2.99 3.11
1.09 1.04 1.10 1.21 1.37 1.42 1.42 1.47 1.52 1.57 1.74 1.74 1.71 1.82 2.02 2.11 2.19 2.19 2.21 2.27 2.26 2.14 2.30 2.30 2.38 2.44 2.39 2.27 2.42 2.47 2.42 2.60 2.52 2.38 2.32 2.31 2.42 2.49 2.59 2.41 2.51 2.76 2.83
1.10 1.11 1.21 1.36 1.38 1.32 1.33 1.32 1.28 1.36 1.58 1.72 1.81 1.91 1.99 1.98 2.07 2.10 2.10 2.13 2.18 2.25 2.30 2.30 2.40 2.44 2.25 2.38 2.45 2.49 2.50 2.54 2.45 2.41 2.31 2.18 2.21 2.25 2.29 2.26 2.29 2.49 2.61
1.01 1.14 1.27 1.30 1.32 1.37 1.37 1.28 1.16 1.25 1.58 1.71 1.77 2.00 2.12 2.03 2.11 2.14 2.17 2.18 2.22 2.37 2.44 2.52 2.56 2.48 2.59 2.61 2.42 2.45 2.42 2.47 2.47 2.47 2.44 2.12 1.92 2.16 2.10 2.22 2.16 2.09 2.19
0.92 1.07 1.16 1.22 1.26 1.29 1.29 1.25 1.24 1.29 1.57 1.83 1.97 2.28 2.44 2.28 2.28 2.31 2.34 2.41 2.54 2.59 2.65 2.67 2.57 2.53 2.62 2.67 2.32 2.26 2.16 2.20 2.28 2.31 2.37 2.41 2.32 2.30 2.33 2.35 2.27 2.10 2.05
1.02 1.04 1.14 1.28 1.39 1.54 1.56 1.52 1.57 1.67 1.85 2.06 2.22 2.50 2.75 2.85 2.79 2.62 2.68 2.77 2.78 2.74 2.80 2.85 2.83 2.69 2.74 2.67 2.28 2.16 2.00 2.05 2.08 2.13 2.13 2.18 2.11 2.19 2.13 2.07 2.01 1.95 1.86
1.10 1.21 1.39 1.41 1.46 1.66 1.68 1.74 1.87 2.10 2.21 2.21 2.25 2.48 2.77 2.89 2.88 2.85 3.02 3.12 2.99 2.88 2.90 2.77 2.65 2.53 2.56 2.59 2.23 2.02 1.87 1.96 2.02 2.11 2.07 2.05 1.96 1.96 1.87 1.77 1.77 1.69 1.69
1.11 1.12 1.13 1.28 1.42 1.56 1.73 1.95 2.05 2.19 2.29 2.37 2.37 2.49 2.75 3.07 3.03 3.10 3.18 3.23 3.20 3.22 3.19 3.06 2.93 2.74 2.65 2.67 2.34 2.11 1.89 1.90 1.94 1.85 1.80 1.82 1.84 1.66 1.62 1.60 1.58 1.64 1.71
1.12 1.16 1.10 1.19 1.41 1.62 1.89 2.06 2.14 2.26 2.44 2.50 2.49 2.57 2.85 2.97 3.01 3.16 3.22 3.33 3.46 3.45 3.38 3.32 3.04 2.91 2.79 2.50 2.22 2.04 2.00 2.05 2.06 1.95 1.87 1.89 1.82 1.62 1.57 1.41 1.37 1.51 1.51
1.21 1.33 1.38 1.36 1.52 1.72 1.96 2.22 2.29 2.32 2.28 2.29 2.32 2.44 2.61 2.75 2.91 3.03 2.98 3.07 3.21 3.16 3.12 3.05 2.87 2.86 2.94 2.74 2.30 1.99 1.92 2.01 2.04 2.10 2.17 1.99 1.83 1.71 1.61 1.58 1.52 1.43 1.33
1.49 1.49 1.59 1.62 1.68 1.80 1.99 2.16 2.20 2.22 2.20 2.14 2.14 2.28 2.51 2.67 2.77 2.85 2.80 2.85 2.86 2.89 2.92 2.90 2.79 2.78 2.90 2.86 2.53 2.19 1.98 1.92 1.88 1.89 1.90 1.81 1.78 1.70 1.55 1.52 1.43 1.29 1.31
1.54 1.52 1.65 1.77 1.78 1.84 2.03 2.18 2.23 2.29 2.34 2.29 2.28 2.42 2.52 2.58 2.73 2.80 2.82 2.84 2.79 2.78 2.79 2.73 2.64 2.63 2.71 2.76 2.58 2.28 2.07 1.99 1.96 1.92 1.87 1.83 1.88 1.78 1.67 1.58 1.56 1.59 1.61
1.58 1.64 1.74 1.80 1.80 1.85 2.00 2.11 2.29 2.48 2.55 2.49 2.47 2.44 2.39 2.46 2.44 2.46 2.44 2.44 2.40 2.40 2.37 2.33 2.23 2.16 2.33 2.36 2.07 1.91 1.92 1.95 1.95 1.82 1.76 1.84 1.90 1.88 1.84 1.78 1.71 1.70 1.70